Location: Newark
(46.3150°N, 5.9081°E)
Time: 19:30:09
(UTC+00:00)

OTV 5 (USA 277) - Pass Details

Date: 20 October 2019
Orbit: 310 x 324 km, 54.5° (Epoch: 17 October)

Event Time Altitude Azimuth Distance (km) Brightness Sun altitude
Exits shadow 03:34:08 13° 107° (ESE) 1,105 ? -25.8°
Drops below altitude 10° 03:34:27 10° 109° (ESE) 1,235 ? -25.7°
Sets 03:36:26 0° 114° (ESE) 2,062 ? -25.4°
